QPF
0.00 0.00 0.00 0.00 0.00 0.00 0.01 0.01 0.01 0.01 0.00 0.00 0.00 0.01 0.00 0.01 0.01 0.01 0.00 0.01 0.02 0.05 0.05 0.03 0.02 0.01 0.01 0.01 0.01 0.01 0.01 0.01 0.01 0.02 0.02 0.02 0.03 0.03 0.04 0.04 0.03 0.04 0.05 0.06
0.00 0.00 0.00 0.00 0.00 0.00 0.00 0.00 0.01 0.00 0.00 0.00 0.00 0.00 0.00 0.00 0.00 0.00 0.01 0.01 0.02 0.05 0.09 0.05 0.04 0.03 0.02 0.01 0.01 0.01 0.01 0.01 0.01 0.02 0.02 0.02 0.03 0.03 0.04 0.05 0.05 0.04 0.06 0.07
0.00 0.00 0.00 0.00 0.00 0.00 0.00 0.00 0.01 0.01 0.01 0.00 0.00 0.00 0.00 0.00 0.01 0.01 0.01 0.01 0.02 0.05 0.10 0.07 0.05 0.05 0.04 0.03 0.02 0.01 0.01 0.01 0.02 0.02 0.02 0.03 0.03 0.03 0.04 0.05 0.06 0.05 0.06 0.07
0.00 0.00 0.00 0.00 0.00 0.00 0.00 0.00 0.01 0.01 0.01 0.01 0.01 0.00 0.01 0.01 0.01 0.01 0.01 0.01 0.02 0.05 0.07 0.09 0.06 0.05 0.04 0.03 0.02 0.01 0.01 0.01 0.01 0.02 0.03 0.03 0.04 0.04 0.04 0.04 0.05 0.06 0.06 0.06
0.01 0.01 0.00 0.00 0.00 0.00 0.00 0.00 0.00 0.00 0.00 0.00 0.00 0.00 0.00 0.00 0.01 0.01 0.01 0.01 0.01 0.03 0.03 0.06 0.06 0.04 0.03 0.03 0.02 0.01 0.01 0.02 0.02 0.02 0.02 0.03 0.03 0.04 0.05 0.04 0.04 0.05 0.06 0.06
0.01 0.01 0.01 0.00 0.00 0.00 0.00 0.01 0.00 0.00 0.00 0.00 0.00 0.00 0.00 0.01 0.01 0.01 0.01 0.01 0.01 0.01 0.01 0.03 0.05 0.04 0.03 0.03 0.02 0.02 0.02 0.02 0.02 0.02 0.02 0.02 0.03 0.04 0.04 0.05 0.05 0.04 0.05 0.06
0.01 0.01 0.00 0.00 0.00 0.00 0.01 0.01 0.01 0.00 0.00 0.00 0.01 0.01 0.01 0.01 0.01 0.01 0.01 0.00 0.00 0.01 0.01 0.02 0.02 0.02 0.02 0.03 0.03 0.02 0.02 0.02 0.02 0.03 0.03 0.02 0.02 0.03 0.03 0.04 0.05 0.05 0.05 0.05
0.01 0.01 0.01 0.00 0.00 0.01 0.01 0.01 0.01 0.00 0.01 0.01 0.01 0.01 0.01 0.00 0.01 0.00 0.00 0.00 0.00 0.00 0.01 0.01 0.01 0.01 0.01 0.02 0.03 0.03 0.02 0.02 0.02 0.02 0.02 0.03 0.03 0.03 0.03 0.04 0.04 0.05 0.04 0.05
0.01 0.01 0.00 0.01 0.01 0.01 0.01 0.01 0.01 0.01 0.01 0.01 0.01 0.00 0.00 0.00 0.00 0.00 0.00 0.00 0.00 0.01 0.01 0.01 0.01 0.01 0.01 0.01 0.02 0.03 0.03 0.02 0.02 0.02 0.02 0.02 0.02 0.03 0.03 0.03 0.03 0.04 0.04 0.04
0.01 0.01 0.01 0.01 0.01 0.01 0.01 0.01 0.01 0.01 0.01 0.01 0.01 0.00 0.00 0.00 0.00 0.00 0.00 0.00 0.01 0.01 0.01 0.01 0.01 0.01 0.01 0.01 0.01 0.01 0.02 0.02 0.02 0.02 0.02 0.02 0.02 0.03 0.03 0.04 0.04 0.04 0.04 0.04
0.01 0.01 0.01 0.01 0.01 0.01 0.01 0.01 0.01 0.01 0.01 0.01 0.00 0.00 0.00 0.00 0.00 0.00 0.00 0.00 0.00 0.01 0.01 0.01 0.02 0.01 0.01 0.01 0.01 0.01 0.01 0.01 0.02 0.01 0.01 0.02 0.01 0.02 0.03 0.04 0.05 0.05 0.06 0.05
0.01 0.01 0.01 0.01 0.01 0.01 0.01 0.01 0.01 0.01 0.01 0.00 0.00 0.00 0.00 0.00 0.00 0.00 0.00 0.00 0.00 0.01 0.01 0.01 0.01 0.01 0.01 0.01 0.01 0.01 0.01 0.01 0.01 0.01 0.01 0.01 0.01 0.01 0.02 0.03 0.04 0.05 0.05 0.06
0.01 0.01 0.01 0.01 0.01 0.01 0.01 0.01 0.00 0.00 0.01 0.00 0.00 0.00 0.00 0.00 0.00 0.00 0.00 0.00 0.00 0.01 0.01 0.01 0.01 0.01 0.01 0.01 0.01 0.01 0.01 0.01 0.02 0.02 0.02 0.02 0.01 0.01 0.01 0.02 0.02 0.03 0.04 0.05
0.01 0.00 0.01 0.01 0.01 0.01 0.01 0.00 0.00 0.00 0.00 0.00 0.00 0.00 0.00 0.00 0.00 0.00 0.00 0.00 0.00 0.01 0.01 0.01 0.01 0.01 0.01 0.01 0.01 0.01 0.01 0.02 0.02 0.02 0.02 0.02 0.01 0.01 0.01 0.01 0.01 0.01 0.02 0.03
0.01 0.01 0.01 0.01 0.01 0.01 0.00 0.00 0.00 0.00 0.00 0.00 0.00 0.00 0.00 0.00 0.00 0.00 0.00 0.00 0.00 0.01 0.01 0.01 0.01 0.01 0.01 0.02 0.02 0.02 0.02 0.02 0.01 0.02 0.02 0.02 0.01 0.01 0.01 0.01 0.01 0.01 0.01 0.01
0.01 0.01 0.01 0.01 0.00 0.00 0.00 0.00 0.00 0.00 0.00 0.00 0.00 0.00 0.00 0.00 0.00 0.00 0.00 0.00 0.01 0.01 0.01 0.01 0.01 0.01 0.01 0.02 0.02 0.02 0.02 0.03 0.02 0.02 0.02 0.02 0.02 0.01 0.01 0.01 0.01 0.01 0.01 0.02
0.00 0.00 0.00 0.00 0.00 0.00 0.00 0.00 0.00 0.00 0.00 0.00 0.00 0.00 0.00 0.00 0.00 0.00 0.00 0.01 0.01 0.01 0.01 0.01 0.02 0.02 0.02 0.02 0.02 0.02 0.02 0.02 0.02 0.02 0.01 0.01 0.02 0.02 0.02 0.02 0.01 0.01 0.02 0.02
0.00 0.00 0.00 0.00 0.00 0.00 0.00 0.00 0.00 0.00 0.00 0.00 0.00 0.00 0.00 0.00 0.01 0.01 0.01 0.01 0.01 0.01 0.01 0.01 0.01 0.02 0.01 0.01 0.02 0.02 0.02 0.01 0.02 0.02 0.02 0.01 0.01 0.02 0.02 0.02 0.02 0.02 0.02 0.02
0.00 0.00 0.00 0.00 0.00 0.00 0.00 0.00 0.00 0.00 0.01 0.00 0.00 0.00 0.00 0.01 0.01 0.01 0.01 0.01 0.01 0.01 0.01 0.01 0.01 0.01 0.01 0.01 0.01 0.01 0.01 0.01 0.01 0.02 0.02 0.02 0.01 0.01 0.01 0.02 0.02 0.02 0.02 0.02
0.00 0.00 0.00 0.00 0.00 0.00 0.00 0.00 0.00 0.00 0.01 0.01 0.01 0.01 0.01 0.01 0.01 0.01 0.01 0.01 0.01 0.01 0.01 0.01 0.01 0.01 0.00 0.00 0.01 0.01 0.01 0.01 0.01 0.01 0.01 0.01 0.01 0.01 0.01 0.01 0.02 0.02 0.02 0.02
0.00 0.00 0.00 0.00 0.00 0.00 0.00 0.00 0.00 0.00 0.00 0.00 0.01 0.01 0.01 0.01 0.01 0.01 0.01 0.01 0.01 0.01 0.01 0.01 0.01 0.01 0.01 0.01 0.01 0.01 0.01 0.01 0.01 0.01 0.01 0.01 0.01 0.01 0.01 0.01 0.02 0.02 0.02 0.02
0.00 0.00 0.00 0.00 0.00 0.00 0.00 0.00 0.00 0.00 0.00 0.00 0.01 0.01 0.01 0.01 0.01 0.01 0.01 0.01 0.01 0.01 0.01 0.01 0.01 0.01 0.02 0.02 0.01 0.01 0.00 0.01 0.01 0.01 0.01 0.01 0.01 0.01 0.01 0.01 0.02 0.02 0.02 0.02
0.00 0.00 0.00 0.00 0.00 0.00 0.00 0.00 0.00 0.00 0.00 0.01 0.01 0.01 0.01 0.01 0.01 0.01 0.01 0.01 0.01 0.02 0.02 0.01 0.01 0.01 0.02 0.01 0.01 0.01 0.01 0.01 0.01 0.01 0.01 0.01 0.01 0.01 0.01 0.01 0.02 0.02 0.02 0.02
0.00 0.00 0.00 0.00 0.00 0.00 0.00 0.00 0.00 0.00 0.01 0.01 0.01 0.01 0.01 0.01 0.01 0.01 0.01 0.01 0.01 0.01 0.01 0.01 0.01 0.01 0.01 0.01 0.01 0.01 0.01 0.01 0.01 0.01 0.01 0.01 0.01 0.01 0.01 0.01 0.01 0.01 0.02 0.01
0.00 0.00 0.00 0.00 0.00 0.00 0.00 0.00 0.00 0.00 0.00 0.00 0.01 0.01 0.01 0.01 0.01 0.01 0.01 0.01 0.01 0.01 0.01 0.01 0.01 0.01 0.01 0.01 0.01 0.01 0.01 0.01 0.01 0.01 0.01 0.01 0.01 0.01 0.01 0.01 0.01 0.01 0.01 0.01
0.00 0.00 0.00 0.00 0.00 0.00 0.00 0.00 0.00 0.00 0.00 0.00 0.00 0.00 0.01 0.01 0.01 0.01 0.01 0.01 0.01 0.01 0.01 0.01 0.01 0.01 0.01 0.01 0.01 0.01 0.01 0.01 0.01 0.01 0.01 0.01 0.01 0.01 0.01 0.01 0.01 0.01 0.01 0.01
0.00 0.00 0.00 0.00 0.00 0.00 0.00 0.00 0.01 0.01 0.01 0.01 0.01 0.01 0.01 0.01 0.01 0.00 0.00 0.00 0.01 0.01 0.01 0.01 0.01 0.01 0.01 0.01 0.01 0.01 0.01 0.01 0.01 0.01 0.01 0.01 0.01 0.01 0.01 0.01 0.01 0.01 0.01 0.01
MSLP
1023.48 1023.08 1022.63 1022.09 1021.47 1020.76 1019.99 1019.19 1018.43 1017.77 1017.28 1017.05 1017.13 1017.54 1018.29 1019.34 1020.62 1022.05 1023.53 1024.96 1026.27 1027.40 1028.33 1029.05 1029.59 1029.97 1030.23 1030.40 1030.51 1030.58 1030.60 1030.58 1030.53 1030.43 1030.30 1030.13 1029.96 1029.78 1029.60 1029.43 1029.24 1029.04 1028.80 1028.51
1023.01 1022.48 1021.89 1021.23 1020.54 1019.82 1019.11 1018.45 1017.88 1017.47 1017.27 1017.32 1017.66 1018.28 1019.17 1020.29 1021.57 1022.93 1024.30 1025.60 1026.78 1027.79 1028.62 1029.27 1029.76 1030.12 1030.38 1030.55 1030.66 1030.71 1030.72 1030.68 1030.59 1030.47 1030.31 1030.13 1029.93 1029.74 1029.55 1029.37 1029.18 1028.97 1028.71 1028.41
1022.53 1021.89 1021.21 1020.49 1019.77 1019.10 1018.50 1018.01 1017.69 1017.56 1017.65 1017.98 1018.57 1019.38 1020.39 1021.54 1022.77 1024.03 1025.24 1026.36 1027.36 1028.20 1028.90 1029.45 1029.87 1030.19 1030.43 1030.59 1030.70 1030.76 1030.76 1030.71 1030.61 1030.47 1030.29 1030.09 1029.88 1029.67 1029.46 1029.26 1029.04 1028.81 1028.54 1028.21
1022.08 1021.39 1020.68 1019.97 1019.30 1018.73 1018.29 1018.01 1017.94 1018.08 1018.45 1019.04 1019.83 1020.78 1021.85 1022.98 1024.12 1025.22 1026.24 1027.15 1027.93 1028.58 1029.12 1029.55 1029.89 1030.16 1030.38 1030.54 1030.65 1030.71 1030.72 1030.67 1030.57 1030.42 1030.23 1030.02 1029.79 1029.56 1029.33 1029.09 1028.85 1028.58 1028.27 1027.92
1021.72 1021.06 1020.38 1019.75 1019.20 1018.77 1018.52 1018.47 1018.64 1019.03 1019.63 1020.40 1021.33 1022.35 1023.40 1024.46 1025.45 1026.37 1027.17 1027.85 1028.42 1028.88 1029.26 1029.57 1029.83 1030.06 1030.25 1030.41 1030.53 1030.60 1030.62 1030.58 1030.48 1030.32 1030.13 1029.90 1029.66 1029.41 1029.15 1028.88 1028.60 1028.29 1027.94 1027.55
1021.49 1020.91 1020.35 1019.85 1019.46 1019.23 1019.18 1019.34 1019.72 1020.30 1021.05 1021.94 1022.92 1023.93 1024.91 1025.83 1026.66 1027.37 1027.95 1028.42 1028.79 1029.08 1029.32 1029.54 1029.73 1029.92 1030.10 1030.25 1030.37 1030.45 1030.47 1030.43 1030.33 1030.17 1029.97 1029.74 1029.49 1029.22 1028.93 1028.63 1028.31 1027.96 1027.56 1027.13
1021.43 1020.99 1020.59 1020.27 1020.07 1020.04 1020.19 1020.53 1021.06 1021.76 1022.59 1023.51 1024.46 1025.39 1026.26 1027.02 1027.66 1028.17 1028.55 1028.84 1029.05 1029.21 1029.36 1029.50 1029.65 1029.81 1029.97 1030.11 1030.22 1030.29 1030.30 1030.25 1030.14 1029.97 1029.76 1029.52 1029.26 1028.98 1028.67 1028.35 1027.99 1027.60 1027.17 1026.69
1021.54 1021.28 1021.08 1020.96 1020.96 1021.12 1021.43 1021.90 1022.53 1023.28 1024.11 1024.99 1025.85 1026.66 1027.37 1027.96 1028.42 1028.76 1028.99 1029.15 1029.25 1029.33 1029.42 1029.52 1029.65 1029.78 1029.92 1030.04 1030.13 1030.16 1030.14 1030.06 1029.92 1029.73 1029.51 1029.25 1028.98 1028.69 1028.37 1028.03 1027.65 1027.23 1026.77 1026.26
1021.87 1021.80 1021.79 1021.87 1022.06 1022.37 1022.80 1023.36 1024.02 1024.76 1025.54 1026.31 1027.05 1027.71 1028.25 1028.68 1029.00 1029.21 1029.33 1029.40 1029.45 1029.50 1029.57 1029.66 1029.77 1029.88 1029.99 1030.07 1030.11 1030.09 1030.01 1029.87 1029.68 1029.46 1029.20 1028.93 1028.65 1028.35 1028.03 1027.69 1027.30 1026.87 1026.38 1025.85
1022.41 1022.53 1022.71 1022.96 1023.29 1023.71 1024.21 1024.80 1025.45 1026.13 1026.81 1027.47 1028.06 1028.56 1028.96 1029.26 1029.46 1029.59 1029.65 1029.69 1029.73 1029.77 1029.84 1029.93 1030.03 1030.12 1030.18 1030.20 1030.17 1030.07 1029.91 1029.69 1029.44 1029.16 1028.87 1028.58 1028.29 1027.99 1027.67 1027.32 1026.94 1026.50 1026.02 1025.48
1023.18 1023.46 1023.79 1024.17 1024.60 1025.08 1025.62 1026.19 1026.78 1027.38 1027.95 1028.48 1028.93 1029.30 1029.58 1029.78 1029.91 1029.99 1030.03 1030.07 1030.11 1030.17 1030.24 1030.33 1030.40 1030.45 1030.45 1030.39 1030.27 1030.07 1029.82 1029.52 1029.19 1028.86 1028.53 1028.21 1027.90 1027.60 1027.29 1026.95 1026.58 1026.15 1025.67 1025.13
1024.20 1024.59 1025.01 1025.47 1025.94 1026.45 1026.97 1027.50 1028.03 1028.53 1028.99 1029.40 1029.74 1030.01 1030.21 1030.34 1030.42 1030.47 1030.51 1030.55 1030.60 1030.66 1030.73 1030.78 1030.81 1030.80 1030.72 1030.57 1030.35 1030.05 1029.71 1029.32 1028.93 1028.54 1028.17 1027.83 1027.51 1027.21 1026.91 1026.58 1026.22 1025.80 1025.33 1024.81
1025.42 1025.87 1026.34 1026.82 1027.30 1027.79 1028.27 1028.74 1029.19 1029.61 1029.99 1030.31 1030.56 1030.75 1030.89 1030.97 1031.03 1031.06 1031.08 1031.11 1031.14 1031.18 1031.20 1031.21 1031.17 1031.07 1030.91 1030.66 1030.34 1029.96 1029.54 1029.09 1028.64 1028.21 1027.82 1027.46 1027.14 1026.83 1026.53 1026.22 1025.86 1025.46 1025.01 1024.51
1026.79 1027.26 1027.73 1028.18 1028.63 1029.07 1029.50 1029.91 1030.30 1030.65 1030.96 1031.21 1031.41 1031.55 1031.64 1031.69 1031.71 1031.70 1031.69 1031.67 1031.66 1031.63 1031.59 1031.51 1031.38 1031.19 1030.94 1030.60 1030.21 1029.76 1029.28 1028.79 1028.32 1027.87 1027.47 1027.11 1026.78 1026.48 1026.18 1025.87 1025.52 1025.13 1024.70 1024.21
1028.26 1028.70 1029.12 1029.52 1029.92 1030.30 1030.67 1031.02 1031.35 1031.65 1031.91 1032.13 1032.28 1032.38 1032.43 1032.44 1032.40 1032.35 1032.27 1032.18 1032.07 1031.95 1031.80 1031.62 1031.39 1031.11 1030.77 1030.37 1029.92 1029.43 1028.93 1028.44 1027.96 1027.52 1027.12 1026.77 1026.45 1026.15 1025.85 1025.54 1025.20 1024.82 1024.39 1023.93
1029.74 1030.12 1030.47 1030.80 1031.12 1031.43 1031.75 1032.05 1032.34 1032.60 1032.83 1033.01 1033.13 1033.20 1033.20 1033.15 1033.05 1032.91 1032.74 1032.54 1032.32 1032.08 1031.82 1031.52 1031.19 1030.83 1030.42 1029.97 1029.50 1029.01 1028.52 1028.04 1027.59 1027.17 1026.80 1026.46 1026.15 1025.85 1025.55 1025.23 1024.89 1024.52 1024.11 1023.67
1031.17 1031.46 1031.73 1031.98 1032.22 1032.47 1032.73 1032.99 1033.24 1033.47 1033.67 1033.82 1033.91 1033.92 1033.87 1033.75 1033.56 1033.33 1033.04 1032.72 1032.38 1032.01 1031.63 1031.23 1030.81 1030.38 1029.93 1029.47 1028.99 1028.53 1028.07 1027.63 1027.22 1026.84 1026.49 1026.17 1025.87 1025.57 1025.27 1024.95 1024.61 1024.25 1023.86 1023.45
1032.48 1032.69 1032.87 1033.04 1033.21 1033.40 1033.60 1033.82 1034.03 1034.23 1034.39 1034.50 1034.55 1034.51 1034.39 1034.19 1033.91 1033.56 1033.16 1032.72 1032.26 1031.78 1031.30 1030.82 1030.33 1029.86 1029.39 1028.93 1028.48 1028.05 1027.64 1027.25 1026.88 1026.54 1026.22 1025.91 1025.61 1025.32 1025.01 1024.70 1024.36 1024.02 1023.65 1023.28
1033.64 1033.77 1033.88 1033.98 1034.09 1034.22 1034.38 1034.54 1034.71 1034.86 1034.98 1035.03 1035.01 1034.91 1034.71 1034.42 1034.04 1033.60 1033.10 1032.57 1032.01 1031.45 1030.89 1030.35 1029.84 1029.35 1028.88 1028.44 1028.03 1027.64 1027.27 1026.92 1026.59 1026.27 1025.97 1025.67 1025.38 1025.08 1024.78 1024.47 1024.15 1023.83 1023.50 1023.17
1034.64 1034.72 1034.77 1034.81 1034.87 1034.95 1035.04 1035.15 1035.27 1035.35 1035.40 1035.39 1035.29 1035.10 1034.82 1034.45 1033.99 1033.47 1032.90 1032.29 1031.67 1031.07 1030.48 1029.92 1029.39 1028.91 1028.46 1028.05 1027.67 1027.31 1026.98 1026.66 1026.35 1026.05 1025.75 1025.46 1025.16 1024.87 1024.57 1024.27 1023.97 1023.68 1023.40 1023.12
1035.51 1035.54 1035.54 1035.54 1035.55 1035.58 1035.62 1035.66 1035.70 1035.71 1035.67 1035.57 1035.39 1035.11 1034.75 1034.30 1033.78 1033.20 1032.58 1031.94 1031.30 1030.68 1030.09 1029.55 1029.04 1028.58 1028.15 1027.77 1027.41 1027.08 1026.76 1026.46 1026.15 1025.85 1025.56 1025.26 1024.96 1024.67 1024.38 1024.11 1023.84 1023.59 1023.35 1023.13
1036.25 1036.25 1036.22 1036.19 1036.15 1036.12 1036.10 1036.07 1036.02 1035.93 1035.80 1035.59 1035.31 1034.95 1034.52 1034.01 1033.43 1032.82 1032.19 1031.55 1030.92 1030.32 1029.75 1029.23 1028.76 1028.32 1027.93 1027.56 1027.23 1026.90 1026.59 1026.28 1025.97 1025.67 1025.36 1025.07 1024.77 1024.49 1024.23 1023.98 1023.75 1023.54 1023.34 1023.16
1036.88 1036.86 1036.81 1036.74 1036.66 1036.57 1036.48 1036.36 1036.21 1036.02 1035.78 1035.48 1035.10 1034.66 1034.15 1033.59 1032.99 1032.37 1031.74 1031.12 1030.52 1029.96 1029.43 1028.95 1028.51 1028.11 1027.74 1027.39 1027.05 1026.73 1026.41 1026.10 1025.78 1025.47 1025.17 1024.87 1024.59 1024.33 1024.09 1023.87 1023.68 1023.51 1023.35 1023.20
1037.43 1037.38 1037.30 1037.19 1037.07 1036.92 1036.74 1036.53 1036.29 1035.99 1035.64 1035.24 1034.77 1034.26 1033.69 1033.10 1032.48 1031.87 1031.26 1030.67 1030.11 1029.59 1029.11 1028.67 1028.26 1027.88 1027.53 1027.18 1026.85 1026.53 1026.20 1025.88 1025.57 1025.26 1024.96 1024.68 1024.42 1024.18 1023.97 1023.78 1023.62 1023.47 1023.33 1023.19
1037.88 1037.80 1037.69 1037.54 1037.35 1037.14 1036.88 1036.59 1036.24 1035.84 1035.40 1034.90 1034.36 1033.79 1033.18 1032.56 1031.95 1031.34 1030.76 1030.20 1029.69 1029.21 1028.76 1028.35 1027.97 1027.61 1027.26 1026.92 1026.59 1026.27 1025.94 1025.62 1025.31 1025.02 1024.74 1024.48 1024.25 1024.04 1023.86 1023.69 1023.54 1023.40 1023.25 1023.10
1038.24 1038.12 1037.96 1037.76 1037.52 1037.24 1036.90 1036.52 1036.09 1035.61 1035.08 1034.51 1033.91 1033.29 1032.66 1032.04 1031.42 1030.83 1030.27 1029.75 1029.27 1028.82 1028.40 1028.01 1027.64 1027.29 1026.95 1026.61 1026.28 1025.95 1025.64 1025.33 1025.04 1024.77 1024.51 1024.28 1024.08 1023.89 1023.72 1023.56 1023.40 1023.24 1023.07 1022.87
1038.52 1038.34 1038.13 1037.87 1037.57 1037.22 1036.82 1036.36 1035.86 1035.31 1034.73 1034.11 1033.48 1032.83 1032.19 1031.57 1030.97 1030.39 1029.86 1029.35 1028.89 1028.46 1028.05 1027.67 1027.31 1026.95 1026.61 1026.27 1025.95 1025.63 1025.32 1025.04 1024.77 1024.51 1024.29 1024.08 1023.88 1023.71 1023.53 1023.35 1023.17 1022.96 1022.73 1022.47
Thickness
5412 5407 5401 5398 5394 5387 5380 5385 5384 5389 5378 5373 5363 5352 5346 5342 5338 5336 5333 5330 5328 5327 5328 5328 5328 5328 5329 5330 5332 5335 5338 5342 5346 5349 5354 5358 5362 5367 5371 5375 5380 5385 5390 5395
5398 5394 5389 5387 5386 5380 5374 5370 5367 5364 5364 5356 5345 5338 5335 5332 5328 5325 5323 5320 5318 5317 5316 5317 5317 5317 5318 5319 5321 5323 5327 5330 5334 5337 5342 5346 5351 5356 5361 5366 5370 5375 5380 5385
5399 5383 5378 5389 5384 5373 5366 5361 5354 5357 5356 5342 5335 5330 5326 5322 5318 5314 5311 5309 5308 5307 5305 5306 5306 5306 5307 5309 5310 5313 5316 5319 5323 5326 5330 5335 5340 5345 5350 5356 5361 5366 5371 5376
5379 5375 5377 5389 5363 5360 5355 5351 5343 5340 5336 5328 5322 5317 5314 5311 5307 5304 5301 5299 5297 5296 5295 5296 5296 5296 5297 5299 5301 5303 5306 5309 5312 5315 5320 5325 5330 5335 5340 5346 5351 5357 5362 5367
5367 5372 5382 5373 5356 5346 5340 5343 5335 5327 5323 5318 5310 5309 5312 5302 5295 5291 5289 5287 5286 5286 5286 5287 5287 5287 5288 5290 5293 5295 5297 5300 5302 5305 5309 5314 5319 5324 5329 5335 5342 5347 5351 5357
5354 5360 5372 5370 5343 5333 5330 5337 5328 5317 5312 5306 5300 5307 5308 5292 5284 5281 5278 5277 5276 5277 5277 5278 5278 5278 5279 5282 5283 5286 5288 5290 5293 5296 5299 5304 5309 5314 5319 5325 5331 5336 5342 5347
5347 5350 5362 5346 5328 5324 5330 5336 5315 5307 5301 5295 5291 5290 5285 5278 5274 5271 5269 5267 5267 5267 5267 5268 5268 5269 5271 5273 5274 5276 5278 5281 5284 5287 5291 5295 5299 5304 5309 5315 5321 5327 5333 5338
5337 5339 5349 5327 5320 5322 5323 5308 5301 5296 5290 5284 5280 5276 5272 5268 5265 5262 5260 5259 5258 5258 5258 5258 5258 5259 5261 5263 5265 5267 5269 5273 5276 5279 5282 5286 5290 5295 5300 5305 5311 5317 5322 5327
5338 5345 5329 5316 5313 5306 5298 5295 5291 5285 5279 5274 5269 5266 5263 5259 5257 5254 5251 5250 5249 5249 5249 5249 5248 5249 5251 5253 5256 5258 5261 5264 5268 5271 5274 5278 5282 5287 5291 5296 5302 5307 5311 5316
5319 5325 5315 5305 5299 5292 5286 5282 5278 5273 5268 5264 5260 5256 5253 5251 5249 5246 5243 5242 5241 5241 5241 5241 5240 5240 5242 5245 5247 5250 5252 5256 5260 5263 5267 5270 5273 5278 5282 5287 5292 5297 5302 5306
5311 5312 5303 5298 5290 5283 5277 5271 5266 5262 5258 5254 5250 5247 5244 5242 5240 5238 5235 5233 5232 5231 5232 5232 5232 5233 5234 5236 5238 5242 5245 5248 5251 5255 5258 5261 5265 5268 5272 5277 5280 5286 5291 5295
5316 5303 5295 5292 5281 5273 5267 5262 5257 5253 5249 5245 5241 5238 5236 5233 5231 5229 5227 5225 5224 5223 5223 5223 5224 5225 5226 5227 5229 5232 5237 5240 5243 5246 5249 5253 5256 5260 5263 5267 5272 5276 5280 5285
5290 5282 5278 5273 5268 5263 5257 5253 5248 5243 5240 5236 5233 5229 5227 5224 5222 5220 5218 5217 5215 5214 5214 5214 5215 5217 5218 5219 5221 5223 5227 5230 5234 5237 5241 5244 5247 5251 5255 5259 5263 5267 5272 5275
5274 5269 5267 5264 5260 5253 5247 5243 5238 5234 5230 5227 5224 5221 5218 5216 5214 5212 5210 5208 5207 5206 5206 5206 5207 5208 5209 5211 5213 5215 5218 5221 5224 5228 5231 5235 5238 5241 5245 5249 5254 5259 5262 5265
5265 5260 5258 5253 5248 5243 5238 5234 5230 5226 5222 5219 5215 5212 5209 5207 5205 5203 5201 5200 5199 5198 5198 5199 5199 5200 5201 5202 5204 5207 5209 5213 5216 5219 5222 5225 5228 5231 5235 5239 5243 5247 5251 5255
5256 5251 5247 5243 5239 5234 5229 5225 5222 5218 5214 5211 5207 5204 5201 5198 5197 5195 5193 5192 5191 5191 5191 5191 5191 5192 5193 5194 5196 5198 5201 5203 5206 5209 5213 5216 5219 5222 5225 5229 5233 5237 5240 5243
5247 5244 5239 5234 5231 5226 5221 5217 5213 5209 5205 5202 5199 5196 5193 5191 5190 5188 5187 5184 5183 5183 5183 5183 5184 5184 5185 5186 5187 5190 5192 5194 5196 5199 5202 5205 5208 5211 5214 5218 5222 5225 5229 5232
5240 5236 5231 5226 5222 5218 5214 5209 5205 5201 5197 5194 5190 5187 5185 5183 5182 5181 5179 5177 5177 5177 5177 5177 5176 5177 5177 5178 5179 5181 5183 5185 5187 5190 5192 5194 5197 5200 5203 5207 5211 5214 5218 5222
5231 5227 5222 5218 5214 5209 5205 5201 5197 5193 5190 5186 5183 5180 5178 5176 5174 5173 5171 5170 5170 5171 5171 5170 5170 5170 5171 5171 5172 5173 5174 5176 5178 5181 5182 5185 5187 5190 5193 5196 5200 5204 5207 5211
5223 5218 5214 5209 5205 5201 5197 5193 5189 5186 5183 5179 5176 5174 5172 5170 5168 5166 5165 5164 5165 5164 5163 5163 5164 5165 5165 5165 5165 5166 5167 5168 5170 5172 5173 5175 5178 5180 5183 5186 5189 5193 5197 5200
5214 5209 5205 5201 5197 5193 5189 5186 5182 5179 5176 5173 5170 5168 5166 5165 5162 5160 5160 5161 5161 5158 5157 5158 5158 5158 5159 5159 5159 5159 5160 5160 5162 5164 5166 5167 5169 5171 5174 5177 5180 5183 5186 5189
5205 5201 5197 5193 5189 5186 5182 5179 5175 5172 5170 5167 5165 5163 5161 5160 5158 5157 5155 5154 5154 5153 5152 5152 5152 5153 5154 5154 5153 5153 5153 5154 5155 5156 5158 5160 5161 5163 5166 5168 5170 5173 5176 5178
5197 5193 5189 5185 5182 5178 5175 5172 5169 5167 5165 5162 5160 5159 5157 5155 5154 5152 5152 5151 5148 5148 5147 5147 5147 5148 5149 5148 5148 5148 5148 5148 5149 5150 5151 5152 5154 5155 5157 5159 5161 5164 5166 5169
5189 5185 5181 5177 5174 5171 5170 5168 5164 5162 5159 5158 5156 5154 5152 5150 5149 5147 5145 5144 5143 5143 5143 5142 5143 5143 5143 5143 5142 5142 5143 5143 5144 5145 5145 5146 5147 5148 5149 5151 5153 5156 5158 5161
5180 5177 5174 5170 5169 5167 5165 5162 5159 5157 5155 5154 5152 5150 5147 5145 5144 5142 5140 5139 5139 5138 5138 5138 5138 5138 5138 5137 5137 5137 5138 5138 5139 5140 5140 5140 5141 5142 5144 5145 5147 5149 5152 5154
5173 5171 5168 5165 5163 5160 5158 5156 5154 5153 5151 5149 5147 5145 5143 5141 5139 5137 5136 5135 5134 5133 5133 5133 5133 5133 5133 5133 5133 5133 5133 5134 5134 5134 5135 5136 5136 5137 5139 5140 5142 5144 5146 5149
5165 5163 5161 5159 5156 5154 5152 5150 5148 5147 5145 5143 5142 5141 5139 5136 5135 5133 5131 5131 5130 5129 5129 5128 5128 5128 5128 5128 5128 5128 5129 5129 5129 5130 5130 5131 5132 5133 5134 5136 5137 5139 5142 5144